Location: Hebron
(33.0265°N, 96.8636°W)
Time: 21:42:05
(UTC+00:00)

Okean 1 - Pass Details

Date: 09 July 2022
Orbit: 532 x 553 km, 82.5° (Epoch: 15 August)

Event Time Altitude Azimuth Distance (km) Brightness Sun altitude
Rises 08:18:48 0° 10° (N) 2,681 7.9 -29.1°
Reaches altitude 10° 08:21:20 10° 26° (NNE) 1,785 6.9 -28.9°
Maximum altitude 08:24:25 22° 78° (ENE) 1,196 5.4 -28.6°
Enters shadow 08:24:31 22° 80° (E) 1,197 5.4 -28.5°
